Home   Weather   Santa Cruz de Tenerife   Past weeks

Flag for Spain Past Weather in Santa Cruz de Tenerife, Canary Islands, Spain — Yesterday and Last 2 Weeks

Now
52 °F

Passing clouds.


Feels Like: 46 °F
Forecast: 61 / 69 °F
Wind: 22 mph from Northwest

Location: Tenerife / Los Rodeos

Current Time: Feb 22, 2017 at 4:10:33 am

Latest Report: Feb 22, 2017 at 3:30 am


Visibility: 4 mi

Pressure: 30.04 "Hg

Humidity: 100%

Dew Point: 52 °F

Location of Santa Cruz de TenerifeLocation

Past Weather in Santa Cruz de Tenerife — Graph

°F

Santa Cruz de Tenerife Temperature Yesterday

Maximum temperature yesterday: 54 °F (at 12:00 am)
Minimum temperature yesterday: 52 °F (at 2:00 am)
Average temperature yesterday: 52 °F

High & Low Weather Summary for the Past Weeks

 TemperatureHumidityPressure
High70 °F (Feb 17, 12:30 pm)100% (Feb 7, 8:00 pm)30.36 "Hg (Feb 7, 8:00 pm)
Low46 °F (Feb 14, 5:30 am)32% (Feb 17, 8:00 pm)29.47 "Hg (Feb 12, 7:00 am)
Average55 °F86%30.09 "Hg
* Reported Feb 7 3:00 am — Feb 22 3:00 am, Santa Cruz de Tenerife, Weather by CustomWeather, © 2017

Note: Actual official high and low records may vary slightly from our data, if they occured in-between our weather recording intervals... More about our weather records

Advertising

Santa Cruz de Tenerife Weather History for the Previous 24 Hours

Scroll right to see more
 ConditionsComfort  
Time TempWeatherWind HumidityBarometerVisibility
3:00 am
Wed, Feb 22
54 °FMostly cloudy.23 mph94%30.04 "Hg5 mi
2:30 am52 °FMostly cloudy.21 mph100%30.07 "Hg4 mi
2:00 am52 °FMostly cloudy.20 mph100%30.07 "Hg5 mi
1:30 am52 °FPassing clouds.22 mph100%30.07 "Hg5 mi
1:00 am52 °FLow clouds.22 mph100%30.07 "Hg6 mi
12:30 am52 °FMostly cloudy.24 mph100%30.07 "Hg5 mi
12:00 am54 °FLow clouds.24 mph94%30.09 "HgN/A
11:30 pm
Tue, Feb 21
54 °FOvercast.23 mph94%30.09 "Hg6 mi
11:00 pm54 °FPassing clouds.24 mph94%30.09 "Hg6 mi
10:30 pm54 °FPassing clouds.22 mph94%30.09 "Hg6 mi
10:00 pm54 °FPassing clouds.20 mph94%30.09 "Hg6 mi
9:30 pm54 °FPassing clouds.20 mph94%30.09 "Hg6 mi
9:00 pm54 °FPassing clouds.21 mph94%30.07 "Hg5 mi
8:30 pm54 °FPassing clouds.18 mph94%30.07 "Hg4 mi
8:00 pm52 °FPassing clouds.18 mph100%30.07 "Hg4 mi
7:30 pm52 °FPassing clouds.22 mph100%30.07 "Hg4 mi
7:00 pm52 °FPassing clouds.20 mph100%30.04 "Hg4 mi
6:30 pm52 °FBroken clouds.22 mph100%30.04 "Hg1 mi
6:00 pm52 °FPartly sunny.22 mph94%30.04 "Hg1 mi
5:30 pm52 °FLight rain. Mostly cloudy.23 mph94%30.04 "Hg1 mi
5:00 pm52 °FMostly cloudy.20 mph100%30.04 "Hg1 mi
4:30 pm52 °FMostly cloudy.21 mph100%30.04 "Hg1 mi
4:00 pm52 °FCool.20 mph100%30.04 "Hg5 mi
3:30 pm54 °FPartly sunny.23 mph94%30.04 "Hg6 mi
3:00 pm52 °FCool.20 mph100%30.04 "Hg3 mi
2:30 pm52 °FHeavy rain. Partly sunny.20 mph100%30.04 "Hg1 mi
2:16 pm52 °FHeavy rain. Fog.20 mph100%30.04 "Hg1 mi
2:00 pm52 °FFog.18 mph94%30.07 "Hg3 mi
1:30 pm52 °FRain. Partly sunny.21 mph100%30.07 "Hg3 mi
1:00 pm52 °FPartly sunny.21 mph100%30.07 "Hg4 mi
12:30 pm54 °FPartly sunny.20 mph88%30.07 "HgN/A
12:00 pm54 °FPartly sunny.20 mph88%30.09 "HgN/A
11:30 am54 °FPartly sunny.17 mph82%30.09 "HgN/A
11:00 am52 °FPartly sunny.18 mph88%30.09 "HgN/A
10:30 am52 °FPartly sunny.16 mph88%30.09 "HgN/A
10:00 am52 °FPartly sunny.17 mph88%30.09 "HgN/A
9:30 am54 °FPartly sunny.16 mph82%30.07 "HgN/A
9:00 am52 °FPartly sunny.17 mph88%30.07 "HgN/A
8:30 am52 °FPartly sunny.20 mph88%30.07 "HgN/A
8:00 am52 °FPartly sunny.17 mph88%30.07 "HgN/A
7:30 am52 °FPassing clouds.17 mph88%30.04 "HgN/A
7:00 am52 °FPassing clouds.21 mph88%30.04 "HgN/A
6:30 am52 °FPassing clouds.20 mph94%30.04 "HgN/A
6:00 am52 °FPassing clouds.21 mph88%30.04 "HgN/A
5:30 am52 °FPassing clouds.20 mph94%30.04 "HgN/A
5:00 am52 °FPartly cloudy.21 mph88%30.04 "HgN/A
4:30 am52 °FPartly cloudy.20 mph94%30.04 "HgN/A
4:00 am52 °FPassing clouds.23 mph88%30.04 "HgN/A
Weather by CustomWeather, © 2017

See weather overviewHow to use our weather pages